GFSWCAN_prec_radar_078.txt.gz
Reflectivity
-12 -20 -20 -20 -19 3 -19 -0 13 14 12 13 13 -17 -19 -20 5 25 33 32 30 26 13 -13 -6 -4 -20 -20 -20 -20 -20 -20 -20 -20 -20 -20 -8 -20 -20 -8 4 22 36 18 14 -20 -4 -20 -6 9 12 -20 -20 -14
-20 -13 -1 1 10 6 14 11 14 15 18 11 13 14 6 -18 -9 23 33 35 31 23 22 -15 -20 -20 -12 -20 -20 -20 -20 -20 -20 -20 -20 -20 3 -20 -20 1 2 2 15 27 -19 -20 18 -20 -17 12 -3 -20 -17 3
8 -20 -18 2 14 9 4 -13 -10 16 20 19 19 19 16 11 12 10 30 24 34 32 29 9 -17 -20 -18 -5 -20 -20 -20 -20 -20 -20 -20 -20 -20 -20 -6 8 -6 -20 -20 6 5 4 -9 -12 -20 9 -8 -10 2 5
1 13 17 10 -0 -0 12 12 9 11 3 14 -4 19 19 3 13 19 21 19 34 34 25 19 -20 -20 -9 5 -1 -20 -20 -20 -20 -20 -20 -20 -20 -20 -20 -13 -20 -13 -10 -20 -20 -20 -18 -20 -20 -15 -7 13 17 -4
23 22 3 6 14 -4 0 -7 -2 11 8 18 2 15 2 25 29 19 12 7 34 28 26 -11 -20 4 9 13 5 -14 16 -4 -9 10 -11 -20 -20 -16 -20 -20 -20 -14 -10 -20 -20 -17 -20 -20 -20 -19 -17 -14 -2 -12
25 -0 -3 12 9 11 12 16 4 -4 12 -9 19 7 14 20 37 22 27 31 32 27 31 3 -20 -11 7 3 22 -20 -20 -19 -19 18 4 13 20 18 -4 6 -20 -20 -19 -20 -20 -12 -20 -20 -20 -1 4 12 -3 -5
-9 -17 6 18 -20 -20 -18 -17 29 21 16 1 8 10 15 33 37 24 19 2 7 25 23 10 12 3 27 20 4 10 19 -20 -20 -10 32 13 -17 13 -20 -20 -20 -20 -20 -20 -20 -20 -20 -20 -15 18 -9 -9 -20 -19
-20 -19 5 6 -20 -20 9 13 30 30 19 7 18 20 28 30 26 18 -19 -19 15 38 19 17 24 10 29 27 25 8 -3 0 -17 -17 3 -1 -20 -20 -20 -11 10 -15 -20 -20 -6 -20 -20 -20 -18 -6 -20 -20 -20 -20
-0 15 15 -11 -18 -1 7 8 2 3 13 27 33 34 32 20 25 4 13 27 28 25 12 -20 -19 10 9 -10 -14 13 -4 -17 -20 4 -20 -20 -20 -20 -20 -20 -20 -20 -9 -19 -18 -20 -16 -20 -6 -17 -20 -20 -20 -20
7 14 18 30 -7 14 13 19 20 17 14 19 17 20 31 24 18 34 24 22 28 29 -9 -20 -20 -20 -20 -20 -20 -20 -20 -20 -20 -20 -20 -20 -20 -20 -20 -3 21 16 -20 -20 -20 -20 -20 14 4 4 -16 -20 -20 -20
19 18 4 15 29 22 -11 -13 11 17 -7 10 24 34 39 30 24 35 33 24 7 -17 -20 -20 -20 -20 -20 -20 -20 -19 -18 -20 -20 -20 -20 -20 -20 -20 -20 -20 4 6 17 -5 -20 -20 -20 -20 -20 -16 -20 -20 -20 -20
22 21 22 19 20 19 19 5 -7 -13 -2 31 19 21 30 23 11 1 -14 -20 -20 -20 -20 -20 -20 -20 -20 -20 -20 -20 -8 8 -18 -20 -7 -17 -15 -14 -20 -20 -13 31 26 19 20 10 13 15 5 -20 -20 -20 -20 -20
-11 20 -2 -12 -4 -6 7 -3 4 -20 -20 -15 -16 2 10 -15 -19 -20 -20 -20 -20 -20 -20 -20 -20 -20 -20 -20 -20 -20 -9 -20 -20 8 10 14 -15 -10 -8 -20 4 25 20 34 16 -15 6 -16 -20 -20 -20 -20 -20 -20
8 -20 -20 -20 -17 -2 -0 0 10 9 2 -18 -20 -20 -20 -20 -20 -10 -17 -20 -16 -20 -20 -20 -20 -20 -18 -20 -20 -20 22 26 -7 21 -5 -11 -6 1 4 15 32 30 22 29 -10 -20 -20 -19 -20 -20 -11 8 13 14
-20 -20 -20 -20 -20 -20 -11 3 -11 -20 -20 -20 -20 -20 -13 7 -0 -6 -11 -11 -20 -20 -20 -20 -20 -20 -20 -17 -6 1 22 22 -6 -17 -18 -14 -1 -7 -10 3 -2 -8 -15 -18 -19 -19 -17 -16 -14 9 16 20 18 15
-20 -20 -9 -19 -20 -20 -20 -20 -20 -20 -20 -20 -20 -20 -20 -5 -16 -19 -9 -19 -17 -9 -14 25 12 17 21 18 11 24 12 -20 -20 -11 -1 1 -2 -14 -14 -15 -14 -11 -12 -11 -6 -1 6 14 18 20 20 18 14 11
-20 -20 -20 -20 -20 -20 -20 -20 -20 -20 -20 -20 -20 -20 -18 -19 -20 -20 5 13 -6 2 16 10 8 -5 15 15 1 -3 5 2 7 6 -17 -17 -6 6 -5 -8 1 8 12 13 15 16 18 20 20 19 16 16 12 11
-20 -20 -20 -20 -20 -20 -20 -20 -20 -20 -20 -20 -18 2 -20 -20 -20 -19 14 2 8 2 -17 -3 -20 -20 -20 -20 -7 0 0 -2 -9 1 4 10 -1 3 7 9 11 8 11 15 14 18 18 19 17 16 14 9 5 5
-20 -20 -20 -20 -20 -20 -20 -20 -20 -20 -13 -20 -20 -20 -20 -9 -20 -20 -8 20 16 1 -20 16 -12 -18 -20 -20 -20 -8 -17 -20 -18 -3 5 10 9 11 14 14 13 9 10 12 12 13 16 16 15 13 11 6 0 -0
-20 -20 -20 -20 -20 -20 -20 -20 -20 -20 -20 -20 -20 -20 -20 -9 -20 -20 -20 -8 -19 -8 -20 -20 -20 -20 -20 -19 -20 5 -17 -10 -20 -20 -4 8 19 19 19 18 15 14 13 14 15 14 11 9 6 4 1 -2 -6 -11
-20 -20 -20 -10 -6 -10 -9 -20 -20 -20 -18 -20 -20 -12 -20 -20 -20 -20 -20 -20 -20 -3 -11 -19 -20 -10 1 4 -9 -20 -20 -20 -14 -17 -11 6 16 18 17 17 16 16 13 10 6 10 8 5 2 -3 -7 -16 -20 -20
-3 -4 -17 -20 -20 -20 -11 -9 -20 -8 -17 -19 -20 -20 -20 -19 -20 -20 -20 -20 -15 -18 -15 -14 -8 -4 -3 -10 -2 -12 -10 -15 -3 2 10 12 13 16 15 15 14 9 2 3 -1 -4 -1 -3 -8 -15 -20 -20 -20 -20
-20 -20 -20 -18 -19 -18 3 21 10 12 8 6 6 1 -13 -11 -2 -19 -20 1 8 -0 -19 -13 -16 -20 -15 2 -7 8 12 9 6 10 14 15 16 16 13 11 11 5 4 1 -1 -11 -19 -20 -20 -20 -20 -20 -20 -20
-20 -20 -20 -20 -20 -20 -20 -20 -20 -20 -20 -19 -16 -17 4 -5 -15 -9 -4 8 9 1 -6 -14 -20 -18 -5 -9 -13 -3 5 8 8 9 12 12 10 11 10 7 3 -1 -9 -19 -20 -20 -20 -20 -20 -20 -20 -20 -20 -20
-20 -20 -20 -20 -20 -20 -20 -20 -20 -20 -20 -20 -20 -20 1 -20 -20 -20 -8 -3 -9 -20 -20 -20 -20 -17 -11 -1 1 4 3 4 8 5 12 13 10 7 1 -4 -5 -13 -20 -20 -20 -20 -20 -20 -20 -20 -20 -20 -20 -20
-20 -12 -20 -20 -20 -20 -20 -20 -20 -20 -20 -20 -20 -16 -20 -20 -20 -20 -3 -20 -20 -20 -20 -20 -20 -20 -20 -18 -18 -11 5 11 12 12 7 5 1 -2 -5 -14 -20 -20 -20 -20 -20 -20 -20 -20 -20 -20 -20 -20 -20 -20
-20 -20 -20 -20 -20 -20 -20 -20 -20 -20 -20 -20 -20 -20 -20 -20 -20 -11 -14 -20 -20 -12 -17 -18 -18 -17 -19 -16 -10 -6 -0 2 1 -1 -8 -12 -13 -15 -20 -20 -20 -20 -20 -20 -20 -20 -20 -20 -20 -20 -20 -20 -20 -20
-20 -20 -20 -20 -20 -20 -20 -20 -20 -20 -20 -20 -20 -20 -20 -20 -20 -20 -20 -20 -20 -20 -18 -17 -15 -18 -15 -14 -15 -15 -13 -16 -20 -20 -20 -20 -20 -20 -20 -20 -20 -20 -20 -20 -20 -20 -20 -20 -20 -20 -20 -20 -20 -20
-20 -20 -20 -20 -20 -20 -7 -20 -20 -20 -20 -20 -20 -20 -17 -20 -20 -20 -20 -20 -20 -20 -20 -20 -19 -20 -20 -20 -20 -20 -20 -20 -20 -20 -20 -20 -20 -20 -20 -20 -20 -20 -20 -20 -20 -20 -20 -20 -20 -20 -20 -20 -20 -20
-20 -20 -20 -20 -20 -20 -20 -20 -20 -20 -20 -20 -15 -20 -20 -20 -9 -16 -19 -20 -20 -20 -20 -20 -20 -20 -20 -20 -20 -20 -20 -20 -20 -20 -20 -20 -20 -20 -20 -20 -20 -20 -20 -20 -20 -20 -20 -20 -20 -20 -20 -20 -20 -20
-20 -20 -20 -20 -20 -20 -20 -20 -20 -20 -20 -20 -20 -20 -20 -20 -19 -19 -20 -20 -20 -20 -20 -20 -20 -20 -20 -20 -20 -20 -20 -20 -20 -20 -20 -20 -20 -20 -20 -20 -20 -20 -20 -20 -20 -20 -20 -20 -20 -20 -20 -20 -20 -20
-20 -20 -20 -20 -20 -20 -20 -20 -20 -20 -20 -20 -20 -20 -20 -20 -20 -20 -20 -20 -20 -20 -20 -20 -20 -20 -20 -20 -20 -20 -20 -20 -20 -20 -20 -20 -20 -20 -20 -20 -20 -20 -20 -20 -20 -20 -20 -20 -20 -20 -20 -20 -20 -20
-20 -20 -20 -20 -20 -20 -20 -20 -20 -20 -20 -20 -20 -20 -20 -20 -20 -20 -20 -20 -20 -20 -20 -20 -20 -20 -20 -20 -20 -20 -20 -20 -20 -20 -20 -20 -20 -20 -20 -20 -20 -20 -20 -20 -20 -20 -20 -20 -20 -20 -20 -20 -20 -20

GFSWCAN_prec_radar_084.txt.gz
Reflectivity
16 16 17 -6 5 13 -19 -6 19 16 9 6 5 12 13 25 30 33 35 32 23 35 14 -20 0 0 3 13 10 13 29 11 20 10 10 8 -1 -20 -20 -20 -20 -19 23 24 15 22 5 -8 28 29 19 2 -20 -5
12 17 16 16 13 15 12 10 9 9 -17 3 -12 1 11 -20 11 35 32 28 10 27 28 -2 2 10 13 17 28 30 2 15 -20 -20 -20 -20 -20 -20 -20 -20 -20 -20 -18 10 -15 10 -15 10 23 29 15 36 -2 -20
-3 3 16 10 -16 -20 11 -20 -20 -20 -20 -20 -20 -9 -12 2 -4 22 37 20 23 32 27 -3 18 -17 10 24 11 1 -20 14 28 -15 26 -9 -20 -20 -20 -20 -20 -20 -20 -12 -15 -14 8 -20 20 8 -20 -20 13 -3
15 13 1 11 10 6 -19 -8 2 7 11 2 -16 -9 -19 12 11 22 29 37 18 31 20 16 -20 -7 -10 17 19 -19 -15 11 6 11 11 12 6 -20 -20 -20 -20 -20 -20 -20 -20 -14 4 -15 20 1 -20 -20 -20 21
-10 9 23 22 17 13 10 8 9 13 15 15 17 20 15 22 22 18 14 35 34 9 21 10 -20 -20 -18 -17 -20 -20 -15 10 7 14 26 27 28 22 -15 -20 -20 -20 -20 -20 -20 -6 8 4 -8 11 -17 -20 -20 -13
25 14 13 8 17 14 16 15 13 26 30 29 22 8 14 20 22 30 27 9 29 35 21 1 -6 -20 -20 -18 -5 -19 0 15 23 25 27 18 2 -20 -20 -20 -20 -20 -20 -20 -20 -20 -20 9 -18 -20 -20 -20 -20 -20
-13 14 22 20 -9 -20 -20 -20 -20 6 9 16 20 17 -12 4 30 35 17 -0 -2 13 33 5 25 -20 -20 -20 0 7 14 14 16 25 11 -12 -20 3 -20 -1 -20 -20 -20 -20 -20 -20 -20 1 -20 -20 -20 -20 -20 -20
-1 14 -6 1 -8 -12 4 -2 5 -1 15 16 15 18 20 26 30 30 -11 -20 -20 -6 22 9 27 13 -18 10 11 -4 14 21 27 19 27 3 -20 -20 9 -20 -20 -20 -20 -20 -20 -20 -20 -20 -20 -20 -20 -20 -20 -4
-14 11 17 -11 6 5 13 7 -3 19 20 21 19 22 26 36 39 27 28 13 7 -20 14 -6 1 13 9 -9 9 11 12 27 23 29 -9 -20 -20 -20 -20 -20 -20 -20 -20 -20 -20 -20 -20 -20 -20 -19 -20 -20 -13 -20
28 13 -1 32 6 12 19 25 27 26 27 23 32 40 24 37 33 24 31 31 24 -17 18 -20 29 18 13 17 20 24 10 14 -17 -20 -20 -20 -20 -20 -20 -20 -20 -20 -20 -20 -20 -20 -20 -20 -20 -20 -20 -20 -20 -20
-11 10 24 32 18 27 36 33 28 32 34 35 35 29 25 26 12 32 21 7 24 17 -17 -20 -20 2 -16 13 10 26 19 -3 7 -19 -20 -20 -20 -20 -20 -20 -20 -20 -20 -20 -20 -20 -20 -20 -20 -20 -20 -20 -20 -20
1 -14 -17 22 32 24 -9 9 4 -4 -9 11 30 26 31 32 30 13 3 22 10 -20 -20 -20 -19 -20 -15 -3 -12 23 1 4 -20 -20 -20 -20 -20 -15 -20 -20 -20 -20 -20 -20 -20 -20 -20 -20 -20 -20 -19 -20 -20 -20
16 12 -20 -7 8 31 20 27 12 -0 8 -2 -5 14 4 -6 12 -5 -18 -10 -18 -17 -9 -15 -20 -20 -19 10 23 24 16 -16 -20 -17 -18 -19 -20 -20 -20 -20 -20 -11 -1 -7 -20 -20 -20 -20 -20 -20 -1 -20 -20 -20
-5 -11 0 23 -7 19 20 15 11 15 -2 -20 -20 13 15 -20 -20 -20 -20 -19 -12 -20 -20 -20 -20 -12 -19 2 -18 -20 -20 -17 -5 -15 -20 -19 -19 -16 -20 -20 -15 -7 6 -13 -17 0 -14 -15 -20 -20 -20 -20 -20 -20
-2 -19 -20 -20 -20 -0 -7 -5 2 -14 -8 -20 -20 -20 -20 -4 -19 -15 -14 -2 -13 -20 -20 -20 -20 -20 -20 -20 -18 -20 -20 -20 -20 -20 -20 -20 -20 -20 -20 -18 -16 -11 -12 -13 -13 -8 -15 -4 15 19 9 17 6 -20
-20 -20 -20 -20 -20 -20 -18 -19 -20 -20 -20 -20 -20 -20 -19 -9 -5 -15 -1 -9 -18 -20 -20 -20 -20 -20 -20 -20 -20 -20 -20 -20 -20 -20 -15 -15 -19 -15 -16 -16 2 8 10 13 14 19 21 27 35 34 29 5 5 11
-20 -20 -20 -20 -20 -20 -20 -20 -20 -20 -20 -20 -12 -18 -5 -16 -17 -17 5 -4 -13 -20 -20 -20 -20 -20 -20 -20 -20 -20 -20 -20 -18 -20 -20 -8 16 14 13 -1 -10 4 11 11 14 17 24 26 24 26 21 16 10 7
-20 -20 -20 -20 -20 -20 -20 -20 -20 -20 -20 -20 -20 -5 -4 -17 -11 -18 -17 -3 -17 -20 -20 -19 -20 -17 -20 -19 -20 -17 -15 5 -5 7 0 3 5 5 11 6 -1 3 -10 -3 8 18 20 19 18 16 12 14 10 8
-20 -20 -20 -20 -20 -20 -20 -20 -20 -20 -20 -20 -20 -20 -20 -2 4 4 5 6 3 -2 12 9 8 -2 -4 15 1 3 4 -3 8 13 9 16 12 2 5 5 4 7 8 10 11 12 15 16 12 11 9 14 6 -0
-20 -20 -20 -20 -20 -20 -20 -20 -20 -20 -20 -20 -20 -20 -20 -7 8 9 15 14 15 13 9 -15 -2 -0 7 8 9 9 7 11 13 14 9 7 9 9 11 8 8 9 5 5 10 13 14 11 10 9 11 12 10 7
-20 -20 -20 -20 -20 -20 -20 -20 -20 -20 -20 -20 -20 -20 -20 -20 -20 -20 -2 6 -10 5 -14 -12 -9 -2 5 -1 -16 -19 -19 -20 -18 -6 -7 -9 -3 -3 3 8 2 13 12 16 13 16 15 12 7 9 5 2 1 -7
-20 -20 -20 -20 -20 -20 -15 -19 -20 -17 -20 -20 -20 -20 -20 -20 -20 -20 -20 -20 -18 -1 0 -15 -20 -19 -20 -20 -18 -19 -15 -20 -19 -4 5 8 3 9 11 11 9 11 13 12 11 7 8 5 -6 -6 -6 -14 -20 -20
-20 -20 -20 -20 -20 -20 -20 -15 -20 -10 -20 -20 -20 -20 -20 -20 -20 -20 -20 -7 -14 -9 -18 -20 -12 -20 -20 -19 -20 -20 -19 -20 -15 1 9 11 13 14 14 11 12 10 4 7 6 5 4 -3 -13 -17 -15 -15 -18 -20
-20 -20 -20 -20 -20 -20 -20 -20 -20 -20 -20 -20 -20 -20 -20 -20 -20 -20 -18 -20 -2 -13 -18 -16 -16 -20 -20 -20 -20 -20 -17 -10 -1 -0 5 5 4 8 7 4 5 3 2 3 -5 -19 -20 -20 -20 -20 -20 -20 -20 -20
-20 -20 -20 -20 -20 -20 -20 -20 -20 -20 -20 -20 -20 -20 -20 -20 -20 -20 -20 -20 -20 -20 -20 -20 -20 -20 -20 -20 -20 -20 -20 -20 -15 -11 4 5 7 8 9 9 6 3 0 -4 -11 -20 -20 -20 -20 -20 -20 -20 -20 -20
-20 -20 -20 -20 -20 -20 -20 -20 -20 -20 -20 -20 -20 -20 -20 -20 -20 -20 -20 -20 -20 -20 -20 -20 -20 -20 -20 -20 -20 -20 -17 -8 -4 -6 4 5 6 3 5 3 0 -4 -12 -20 -20 -20 -20 -20 -20 -20 -20 -20 -20 -20
-20 -20 -20 -20 -20 -20 -20 -20 -20 -20 -20 -20 -20 -20 -20 -20 -20 -20 -20 -20 -20 -20 -20 -20 -20 -20 -20 -20 -20 -19 -19 -19 -19 -19 -13 -13 -12 -13 -13 -13 -13 -10 -13 -19 -20 -20 -20 -20 -20 -20 -20 -20 -20 -20
-20 -20 -20 -20 -20 -20 -20 -20 -20 -20 -20 -20 -20 -20 -20 -20 -20 -20 -20 -20 -20 -20 -20 -20 -20 -20 -20 -20 -20 -20 -20 -20 -20 -20 -20 -20 -20 -20 -20 -20 -20 -20 -20 -20 -20 -20 -20 -20 -20 -20 -20 -20 -20 -20
-20 -20 -20 -20 -20 -20 -20 -20 -20 -20 -20 -20 -20 -20 -20 -20 -20 -20 -20 -20 -20 -20 -20 -20 -20 -20 -20 -20 -20 -20 -20 -20 -20 -20 -20 -20 -20 -20 -20 -20 -20 -20 -20 -20 -20 -20 -20 -20 -20 -20 -20 -20 -20 -20
-20 -20 -20 -20 -20 -20 -20 -20 -20 -20 -20 -20 -20 -20 -20 -20 -19 -20 -20 -20 -20 -20 -20 -20 -20 -20 -20 -20 -20 -20 -20 -20 -20 -20 -20 -20 -20 -20 -20 -20 -20 -20 -20 -20 -20 -20 -20 -20 -20 -20 -20 -20 -20 -20
-20 -20 -20 -20 -20 -20 -20 -20 -20 -20 -20 -20 -20 -20 -20 -20 -20 -20 -20 -20 -20 -20 -20 -20 -20 -20 -20 -20 -20 -20 -20 -20 -20 -20 -20 -20 -20 -20 -20 -20 -20 -20 -20 -20 -20 -20 -20 -20 -20 -20 -20 -20 -20 -20
-20 -20 -20 -20 -20 -20 -20 -20 -20 -20 -20 -20 -20 -20 -20 -20 -20 -20 -20 -20 -20 -20 -20 -20 -20 -20 -20 -20 -20 -20 -20 -20 -20 -20 -20 -20 -20 -20 -20 -20 -20 -20 -20 -20 -20 -20 -20 -20 -20 -20 -20 -20 -20 -20
-20 -20 -20 -20 -20 -20 -20 -20 -20 -20 -20 -20 -20 -20 -20 -20 -20 -20 -20 -20 -20 -20 -20 -20 -20 -20 -20 -20 -20 -20 -20 -20 -20 -20 -20 -20 -20 -20 -20 -20 -20 -20 -20 -20 -20 -20 -20 -20 -20 -20 -20 -20 -20 -20

GFSWCAN_prec_radar_087.txt.gz
Reflectivity
14 16 14 14 17 16 19 12 17 16 15 21 19 25 29 31 18 24 22 4 -9 4 -3 1 12 -8 6 15 16 22 19 21 31 18 11 -13 -20 -20 -20 -20 -20 -20 -19 -9 -6 14 13 9 -4 3 -5 10 30 2
11 11 11 9 11 4 17 15 -2 -16 10 -14 -7 10 26 30 31 24 23 7 26 26 25 7 -7 5 5 3 19 28 13 3 -5 17 -17 -20 -20 -20 -20 -20 -20 -20 -18 3 12 12 34 17 -20 -20 -9 5 33 26
13 10 6 14 14 15 12 11 -20 12 -15 -19 -12 18 13 20 30 34 35 26 10 30 34 20 14 9 12 8 3 13 10 11 23 -7 -1 -20 -20 -20 -20 -20 -20 -20 -20 -20 -20 -20 -20 -20 9 4 3 3 17 -15
4 7 7 1 9 -9 -12 1 -11 -7 -4 7 -20 -7 9 16 19 27 35 34 23 33 20 11 -8 -5 6 19 26 2 16 25 26 32 36 22 20 -13 -20 -20 -20 -20 -20 -20 -20 -20 -20 -17 -18 -20 -8 -10 15 -19
20 17 12 5 3 15 24 26 14 6 -20 -9 -20 -18 13 8 20 31 25 29 30 8 11 -3 7 4 -1 -13 5 12 26 20 20 27 34 -5 -12 2 -20 -20 -20 -20 -20 -20 -20 -20 -20 -20 -20 -18 -11 5 5 -20
14 1 -16 3 9 25 20 8 11 10 -6 -20 14 8 -20 0 24 32 34 26 29 32 26 7 17 -20 -20 -20 -16 3 4 17 22 31 11 -4 -20 4 -8 -20 -20 -20 -20 -20 -20 -20 -20 -20 -11 -10 -9 -20 -20 -20
22 5 13 5 11 3 4 16 -9 5 11 12 18 21 17 22 29 33 27 6 4 29 28 -0 2 -8 -20 -20 -11 -5 20 28 27 32 7 4 -20 2 27 -4 -20 -20 -20 -20 -20 -20 -20 -20 -20 -20 -20 -20 -20 -20
-13 -6 -8 -13 -18 -9 7 3 7 3 1 -6 6 14 20 28 31 35 -0 -12 10 30 28 11 -13 -7 -14 4 6 8 13 13 33 31 20 9 -20 -15 8 -20 -20 -20 -20 -20 -20 -20 -20 -20 -20 -20 -1 -20 -20 -20
16 18 13 10 -20 -7 -5 -15 14 10 20 19 25 35 19 33 37 33 15 8 8 0 10 17 -20 -5 0 12 16 13 26 24 18 28 -3 -6 -20 -1 -20 -20 -20 -20 -20 -20 -20 -20 -20 -20 -20 -20 -20 -20 -20 -4
22 33 26 11 6 17 0 22 10 26 16 17 32 38 27 25 28 12 30 31 26 5 -20 -20 -20 -5 -2 -11 -11 22 23 30 10 10 -20 -4 -14 -20 -20 -20 -20 -20 -20 -20 -20 -20 -20 -20 -20 -20 -20 -20 -20 -20
36 32 23 13 10 15 26 23 18 37 33 35 37 30 20 29 4 27 20 16 14 9 -20 -20 -20 -10 7 18 -12 -4 20 8 -15 -19 4 -20 -20 -20 -20 -20 -20 -20 -20 -20 -20 -20 -20 -20 -20 -20 -20 -20 -20 -20
23 29 14 16 23 11 31 32 33 28 28 26 24 34 13 18 30 28 -1 -16 -20 -20 -18 -17 -20 8 31 29 -7 0 2 11 -20 -20 -10 -20 -4 -20 -20 -20 -20 -20 -20 -20 -20 -20 -20 -20 -20 -20 -20 -20 -20 -20
-20 18 12 5 13 18 19 25 9 -13 -1 -20 -19 6 19 20 18 -8 -20 -18 14 -0 -14 -18 -16 -8 4 -7 -7 7 18 11 -20 -20 -18 -16 -19 -20 -20 -20 -20 -20 -20 -20 -13 -14 -20 -20 -20 -20 -20 -20 -20 -20
3 -11 33 -2 -12 10 -4 13 7 -19 -3 11 10 5 3 -20 -20 -20 -20 -20 -20 -14 -19 -20 -20 -20 -20 -5 8 19 1 8 9 11 -20 -20 -20 -20 -20 -20 -20 -20 -20 -16 0 4 -10 -19 -20 -11 -10 -18 -20 5
-5 1 20 -6 -20 10 32 14 -17 -1 -20 -1 -19 -20 -20 -12 -20 -20 -20 -19 -17 -9 14 1 -16 -20 -20 8 -5 -19 -9 -5 -20 -20 -20 -20 -20 -20 -20 -20 -20 -20 -20 -17 -13 -5 -14 -10 10 9 13 18 17 23
-20 -20 -19 -19 -20 -20 -18 6 -5 -20 -20 -20 -20 -20 -20 -20 -18 -18 -6 -15 -17 -1 11 17 10 -18 4 -15 -17 -19 -20 -20 -20 -20 -20 -20 -20 -20 -8 -10 -20 -10 8 -5 -16 -2 13 8 10 16 22 26 27 26
-20 -20 -20 -20 -20 -20 -20 -20 -20 -20 -20 -20 -20 -20 -20 -20 -19 -19 -14 -17 2 -0 -1 -20 -20 -20 -20 -20 -20 -20 -20 -20 -16 -20 -20 -20 -20 -20 -2 7 12 11 8 -1 13 15 11 4 11 7 16 27 30 30
-20 -20 -20 -20 -20 -20 -20 -20 -20 -20 -20 -20 -20 -18 -20 -19 -18 -20 -19 -18 -20 -20 -20 -18 -20 -20 -20 -20 -20 -18 -17 -18 -19 -20 -13 -14 -20 -19 -12 -2 5 5 4 7 6 14 15 15 15 19 21 21 21 21
-20 -20 -20 -20 -20 -20 -20 -20 -20 -20 -20 -20 -20 -20 -20 -9 -9 -15 -10 -19 -14 -9 -3 5 1 -9 -20 0 -5 7 4 -3 1 2 -6 0 4 -15 2 11 6 3 6 9 10 11 13 15 16 17 17 18 13 16
-20 -20 -20 -20 -20 -20 -20 -20 -20 -20 -20 -20 -20 -20 -20 1 8 -2 -11 -19 -19 -20 -20 -13 -10 -3 6 3 3 5 -0 -15 -20 -6 4 -16 -1 3 -0 2 9 9 4 10 12 12 9 9 12 10 7 8 5 7
-20 -20 -20 -20 -20 -20 -20 -20 -20 -20 -20 -20 -20 -20 -20 -9 0 4 6 5 -2 6 5 11 8 0 8 7 2 -2 -1 -6 -20 -20 1 9 6 0 -1 6 -2 5 3 7 2 13 11 1 1 5 1 -6 -6 -3
-20 -20 -20 -20 -20 -20 -19 -20 -20 -20 -20 -20 -20 -20 -20 -20 -20 -20 -3 2 2 4 9 11 9 7 5 -9 -8 -12 -14 -20 -18 -20 -20 -14 -12 -1 6 10 11 11 9 8 6 -8 -6 2 -0 -6 -3 -11 -13 -12
-20 -20 -20 -20 -20 -20 -20 -5 -20 -20 -20 -20 -20 -20 -20 -20 -20 -20 -20 -8 -0 3 -3 -13 -4 -20 -19 -19 -20 -20 -20 -20 -20 -6 1 2 7 9 7 4 10 9 4 2 1 2 -1 -6 -13 -18 -19 -20 -20 -20
-20 -20 -20 -20 -20 -20 -20 -20 -20 -20 -20 -20 -20 -20 -20 -20 -20 -20 -20 -20 -4 -17 -20 -20 -20 -20 -20 -20 -20 -20 -20 -17 -18 -19 -6 -2 -5 1 2 -1 -0 2 4 1 -8 -17 -10 -9 -13 -20 -20 -20 -20 -20
-20 -20 -20 -20 -20 -20 -20 -20 -20 -20 -20 -20 -20 -20 -20 -20 -20 -20 -20 -20 -20 -20 -20 -20 -20 -20 -20 -20 -20 -20 -20 -20 -20 -20 -3 -1 -0 3 5 6 6 6 3 -0 -6 -19 -20 -20 -20 -20 -20 -20 -20 -20
-20 -20 -20 -20 -20 -20 -20 -20 -20 -20 -20 -20 -20 -20 -20 -20 -20 -20 -20 -20 -20 -20 -20 -20 -20 -20 -20 -20 -20 -20 -20 -19 -20 -20 -14 -5 1 3 5 4 4 2 -4 -6 -11 -17 -20 -20 -20 -20 -20 -20 -20 -20
-20 -20 -20 -20 -20 -20 -20 -20 -20 -20 -20 -20 -20 -20 -20 -20 -20 -20 -20 -20 -20 -20 -20 -20 -20 -20 -20 -20 -20 -19 -18 -18 -20 -20 -18 -18 -19 -19 -19 -19 -12 -19 -20 -20 -20 -20 -20 -20 -20 -20 -20 -20 -20 -20
-20 -20 -20 -20 -20 -20 -20 -20 -20 -20 -20 -20 -20 -20 -20 -20 -20 -20 -20 -20 -20 -20 -20 -20 -20 -20 -20 -20 -20 -20 -20 -20 -20 -20 -20 -20 -20 -20 -20 -20 -20 -20 -20 -20 -20 -20 -20 -20 -20 -20 -20 -20 -20 -20
-20 -20 -20 -20 -20 -20 -20 -20 -20 -20 -20 -20 -20 -20 -20 -20 -20 -20 -20 -20 -20 -20 -20 -20 -20 -20 -20 -20 -20 -20 -20 -20 -20 -20 -20 -20 -20 -20 -20 -20 -20 -20 -20 -20 -20 -20 -20 -20 -20 -20 -20 -20 -20 -20
-20 -20 -20 -20 -20 -20 -20 -20 -20 -20 -20 -20 -20 -20 -20 -20 -20 -20 -20 -20 -20 -20 -20 -20 -20 -20 -20 -20 -20 -20 -20 -20 -20 -20 -20 -20 -20 -20 -20 -20 -20 -20 -20 -20 -20 -20 -20 -20 -20 -20 -20 -20 -20 -20
-20 -20 -20 -20 -20 -20 -20 -20 -20 -20 -20 -20 -20 -20 -20 -20 -20 -20 -20 -20 -20 -20 -20 -20 -20 -20 -20 -20 -20 -20 -20 -20 -20 -20 -20 -20 -20 -20 -20 -20 -20 -20 -20 -20 -20 -20 -20 -20 -20 -20 -20 -20 -20 -20
-20 -20 -20 -20 -20 -20 -20 -20 -20 -20 -20 -20 -20 -20 -20 -20 -20 -20 -20 -20 -20 -20 -20 -20 -20 -20 -20 -20 -20 -20 -20 -20 -20 -20 -20 -20 -20 -20 -20 -20 -20 -20 -20 -20 -20 -20 -20 -20 -20 -20 -20 -20 -20 -20
-20 -20 -20 -20 -20 -20 -20 -20 -20 -20 -20 -20 -20 -20 -20 -20 -20 -20 -20 -20 -20 -20 -20 -20 -20 -20 -20 -20 -20 -20 -20 -20 -20 -20 -20 -20 -20 -20 -20 -20 -20 -20 -20 -20 -20 -20 -20 -20 -20 -20 -20 -20 -20 -20

GFSWCAN_prec_radar_093.txt.gz
Reflectivity
13 14 -6 -20 -16 -20 -11 -12 5 8 9 11 11 8 12 10 12 22 7 20 19 10 -5 4 -20 -16 -20 -20 13 -2 27 23 12 18 16 17 17 -8 -20 -12 17 -4 14 5 8 13 8 -20 -20 -7 -5 -20 -20 -20
10 7 3 -20 -20 -11 15 14 -4 -11 10 8 17 20 26 25 30 25 12 16 23 21 -11 -10 -20 -20 -14 -20 14 25 31 3 25 16 16 20 21 15 -20 9 -20 13 -19 6 -16 -5 -9 -19 -20 -20 -20 -20 -20 -20
-20 -20 -20 -14 7 11 12 8 -6 -12 -20 6 25 18 20 21 29 31 31 12 21 26 19 13 -10 -20 -20 -20 -1 27 21 26 22 22 25 21 24 -7 12 -19 4 -5 -0 -15 0 -20 -20 7 -20 -20 -20 -20 -20 -20
2 10 12 13 11 9 11 9 -11 -6 -20 15 12 9 15 16 22 29 31 29 11 20 11 -20 -20 -20 -20 -20 -18 -20 -1 3 12 20 33 12 20 -12 18 -15 9 -16 10 3 -20 -20 -20 -20 -20 -20 -20 -20 -20 -20
6 7 13 14 16 24 20 16 1 -1 -20 15 10 16 16 15 19 30 33 24 10 11 14 -15 -20 -20 -20 -20 -20 -20 -18 -0 9 31 36 10 12 19 15 19 -11 -19 -16 -16 -20 -2 -20 -20 -20 -20 -20 -20 -20 -20
21 23 17 13 16 7 17 10 11 -3 -20 4 14 13 17 22 30 30 36 33 15 5 30 20 21 25 19 1 3 16 19 18 19 34 22 16 -19 -8 22 17 8 -2 -15 -20 -9 -20 -20 -20 -20 -20 -20 -20 -20 -20
17 6 -13 9 2 -7 6 -5 3 6 0 2 10 13 18 25 30 28 10 9 23 10 36 17 -15 8 3 5 12 19 18 31 10 22 15 11 26 21 22 3 -20 -20 -20 -20 -20 -20 -20 -20 -20 -20 -20 -20 -20 -20
11 4 5 -12 -19 -20 9 15 -18 -15 -2 -8 10 -0 17 22 22 20 8 1 12 28 29 24 20 13 25 34 22 22 28 30 33 17 16 4 1 22 17 -15 -20 -20 -20 -20 -20 -20 -20 -20 -20 -20 -20 -20 -20 -20
-20 -11 16 16 -9 -20 -20 -19 -20 -12 10 27 20 19 33 33 27 1 8 14 14 18 27 14 7 19 14 28 25 23 16 23 6 13 9 22 18 12 3 -3 -2 -20 -20 -20 -20 -20 -20 -20 -20 -20 -20 -20 -20 -20
4 -8 -11 -1 -20 -19 6 -20 -20 23 34 34 25 36 20 14 12 33 39 30 34 24 19 11 23 18 6 11 24 25 23 15 5 -13 -6 14 4 -20 -10 -14 -8 -20 -20 -20 -20 -20 -20 -20 -20 -20 -20 -20 -20 -20
-4 12 -16 -10 -19 -20 -19 11 17 33 40 25 28 33 1 -3 26 34 25 24 27 12 1 -3 7 16 4 18 21 6 12 18 15 3 17 16 -12 -11 -20 -20 -20 -20 -20 -20 -20 -20 -20 -20 -20 -20 -20 -20 -20 -20
12 11 12 -15 -1 -14 -7 24 36 28 24 17 18 24 20 30 32 18 17 -4 5 5 -11 -1 4 18 6 10 12 9 -11 28 2 -15 12 1 -3 -20 -20 -20 -20 -20 -20 -20 -20 -20 -20 -20 -20 -20 -20 -20 -20 -20
10 21 19 23 27 13 33 28 -5 3 5 16 10 12 15 4 14 19 7 1 4 10 -4 8 14 7 -3 -9 -16 -3 -12 17 16 16 21 2 -17 -20 -20 -20 -20 -20 -20 -20 -20 -20 -15 -20 -20 -20 -20 -17 -20 -20
33 17 22 26 30 30 28 12 29 22 24 -8 2 2 14 -4 -18 -15 4 2 -5 4 -3 10 2 21 5 -0 -6 5 21 7 20 9 5 -0 -1 -11 -8 -20 -20 -20 -20 -20 -20 -20 -20 -20 -20 -20 -17 -14 -14 -17
27 27 13 18 13 10 11 26 35 19 -7 -20 -20 -14 -1 -4 -1 0 -3 -3 -20 -20 -9 14 20 21 20 26 24 20 13 18 -9 -1 3 1 -4 -14 -17 -6 -10 -12 -17 -10 -18 -10 -9 -20 -20 -20 -18 -12 -11 -2
-13 29 -2 17 -14 -12 -14 22 12 6 -6 -20 -16 3 -1 5 -0 -10 -19 -17 -20 -18 -17 -2 7 10 8 -3 2 -20 -7 1 3 5 2 -7 -2 -0 -20 -2 -20 -20 -7 -14 -4 1 -1 -4 -9 -5 -7 -8 -2 -4
-11 1 -17 -20 -17 -16 -20 -20 -20 -20 -20 -16 1 0 5 -2 2 -2 -4 -14 -15 10 13 38 10 -5 -19 -12 -6 -8 -3 6 6 7 5 3 3 5 6 6 3 -1 -2 -1 -1 -2 0 2 0 -8 -10 -1 -12 -4
-18 5 6 -4 -19 -20 -20 -8 0 -17 -2 0 0 5 1 3 4 2 2 -2 -0 -7 -20 -19 -20 -20 -5 -2 0 6 6 11 -3 -1 -3 2 -0 -3 3 4 3 5 2 3 2 4 3 2 -0 8 9 5 -6 5
-20 -18 -15 -13 -19 -5 1 -20 -15 -6 4 7 6 4 3 7 4 4 6 6 2 -15 -20 -20 -20 -13 2 3 4 6 4 5 -0 5 5 2 0 4 4 3 4 3 4 8 10 9 8 8 10 10 6 1 -4 -0
-20 -20 -16 -20 -17 -20 -20 -20 -20 -11 1 2 1 -1 2 5 5 6 0 -1 -8 -10 -5 3 4 4 4 7 8 9 10 2 11 9 3 2 2 4 3 3 3 4 3 3 1 5 4 4 5 2 -0 5 1 1
-20 -20 -20 -20 -20 -20 -3 -1 1 -5 2 1 1 -7 4 -1 0 -1 -18 -10 -20 2 2 7 5 3 1 5 3 7 1 1 4 6 4 5 4 3 4 9 9 5 2 1 2 5 7 9 11 11 9 8 7 5
-20 -20 -20 -20 -20 -8 0 -17 2 6 4 4 -2 -8 2 -0 -5 -20 -7 -20 1 7 5 6 2 5 1 -1 2 2 1 5 5 1 -14 -7 9 6 5 6 3 4 3 3 -0 3 6 6 5 2 -2 -15 -20 -20
-20 -20 -20 -20 -20 -20 -20 10 6 10 8 4 -2 -0 1 1 -17 -20 -1 2 7 8 6 4 6 -3 3 4 2 1 2 3 2 3 4 5 5 7 6 4 4 -1 -3 -0 1 -2 -3 -11 -12 -20 -20 -20 -20 -20
-20 -20 -20 -20 -20 -18 -20 -16 -6 -3 -3 -3 -2 -1 -2 -10 -18 -3 1 5 7 5 4 2 3 10 2 -2 -1 -2 3 4 1 -0 5 2 1 2 2 1 1 2 2 2 2 2 -2 -20 -20 -20 -20 -20 -20 -20
-20 -20 -20 -20 -20 -20 -20 -20 -3 -20 -2 -20 -20 -2 1 -14 -0 0 -1 3 5 5 5 7 -2 -2 1 2 2 1 -3 3 3 -2 3 8 2 1 -4 -9 -8 2 6 0 -1 -4 -7 -7 -19 -20 -20 -20 -20 -20
-20 -20 -20 -20 -20 -20 -20 -20 -20 -20 -20 -20 -20 -20 -2 -17 -17 -1 0 4 5 4 5 6 7 1 0 -2 -1 -2 -1 1 3 -17 -8 -14 -9 6 2 -4 -15 -17 -0 1 -18 -20 -20 -20 -20 -20 -20 -20 -20 -20
-20 -20 -20 -20 -20 -20 -20 -20 -20 -20 -20 -20 -20 -20 -20 -20 -2 2 2 1 4 3 1 3 1 1 0 1 0 -0 -2 -16 -11 -2 -2 -4 -3 -20 -10 -1 -10 1 2 -1 -2 -20 -20 -20 -20 -20 -20 -20 -20 -20
-20 -20 -20 -20 -20 -20 -20 -20 -20 -20 -20 -20 -20 -20 -20 -7 0 4 4 5 5 1 -0 0 -2 -2 -2 -0 0 -0 -1 -12 -18 -2 -5 -20 -18 -2 -20 -18 -20 -20 -3 -18 -2 -20 -20 -20 -20 -20 -20 -20 -20 -20
-20 -20 -20 -20 -20 -20 -18 -19 -14 -14 -4 -14 -20 -7 -0 0 8 5 7 4 5 6 5 2 2 3 1 -0 -0 -1 -1 -6 -20 -20 -20 -20 -20 -15 -1 1 1 2 2 -3 -20 -15 -20 -17 -18 -7 -5 -5 -5 -6
-20 -20 -20 -20 -20 -16 -0 -3 2 1 -14 -20 -20 -4 0 2 4 9 7 5 3 3 3 2 -0 -0 -20 -16 -20 -20 -17 -5 -12 -1 -6 -10 -2 -1 -0 1 1 2 2 1 -0 -2 -8 -14 -20 -20 -20 -20 -4 -5
-20 -20 -20 -20 -15 3 3 -2 1 -1 -0 -7 -7 -18 -5 2 4 2 1 2 2 1 4 2 -20 -20 -20 -20 -3 -10 -20 -5 -20 -15 -3 -0 1 1 0 -0 2 2 1 -0 -2 -2 -8 -4 -3 -10 -10 -20 -16 -20
-20 -20 -20 -20 -11 1 -3 3 2 1 1 -1 -1 -20 -3 2 -1 2 1 0 5 3 -19 -19 -20 -20 -20 -20 -20 -20 -20 -20 -6 -4 -4 -2 -0 -2 -2 -2 -1 1 -1 -2 -3 -3 -14 -5 -3 -3 -3 -6 -20 -20
-20 -20 -20 -20 -20 -5 -8 -7 -20 -8 -3 -2 -1 -1 -4 -0 -3 -0 -0 -1 1 1 -1 -10 -5 -9 -20 -20 -20 -20 -20 -20 -20 -20 -20 -20 -20 -20 -4 -0 -1 -3 -5 -4 -3 -18 -20 -20 -20 -20 -20 -20 -20 -20